LFPM 222000Z AUTO 19006KT CAVOK 19/13 Q1013

Sorties Club

Notre Club organise chaque années des sorties c'est l'occasion de faire de belles navigations et de profiter d'une agréable sortie entre pilotes

Les Sorties Club de 2017

Sortie Amboise Chambord Chambord

Les Sorties Club de 2018

Prochaines destinations


Sortie Le Touquet
Le Touquet